When you browse on this site, cookies collect data to enhance your experience and personalize the content and advertising you see.
Visit our Privacy Policy to learn more. By continuing to use the site, you agree to this use of cookies and data.
  • In United Kingdom
  • List of Countries
  • For 7 days
  • Water Temperature
  • Weather Map
  • Weather Widgets
  • user-avatar
    Login

    Hourly Weather Touying

    Today, 22 August, Thursday

    Time Temperature Precipitation Wind Pressure Humidity
    00:00 +23°C° 0 mm 1 mps 756 mmHg 47%
    01:00 +23°C° 0 mm 1 mps 755 mmHg 48%
    02:00 +22°C° 0 mm 1 mps 756 mmHg 49%
    03:00 +21°C° 0 mm 2 mps 756 mmHg 47%
    04:00 +21°C° 0 mm 2 mps 756 mmHg 46%
    05:00 +21°C° 0 mm 2 mps 756 mmHg 45%
    06:00 +23°C° 0 mm 2 mps 756 mmHg 47%
    07:00 +25°C° 0 mm 2 mps 756 mmHg 49%
    08:00 +26°C° 0 mm 2 mps 756 mmHg 51%
    09:00 +28°C° 0 mm 3 mps 756 mmHg 45%
    10:00 +29°C° 0 mm 3 mps 756 mmHg 39%
    11:00 +31°C° 0 mm 3 mps 756 mmHg 33%
    12:00 +33°C° 0 mm 3 mps 756 mmHg 31%
    13:00 +34°C° 0 mm 2 mps 755 mmHg 30%
    14:00 +34°C° 0 mm 2 mps 755 mmHg 28%
    15:00 +34°C° 0 mm 2 mps 755 mmHg 32%
    16:00 +34°C° 0 mm 2 mps 755 mmHg 36%
    17:00 +34°C° 0 mm 2 mps 754 mmHg 40%
    18:00 +30°C° 0 mm 1 mps 754 mmHg 42%
    19:00 +28°C° 0 mm 1 mps 755 mmHg 43%
    20:00 +25°C° 0 mm 1 mps 755 mmHg 45%
    21:00 +25°C° 0 mm 1 mps 755 mmHg 44%
    22:00 +24°C° 0 mm 1 mps 756 mmHg 43%
    23:00 +24°C° 0 mm 1 mps 756 mmHg 43%

    Tomorrow, 23 August, Friday

    Time Temperature Precipitation Wind Pressure Humidity
    00:00 +23°C° 0 mm 1 mps 756 mmHg 42%
    01:00 +23°C° 0 mm 2 mps 756 mmHg 41%
    02:00 +21°C° 0 mm 2 mps 756 mmHg 40%
    03:00 +21°C° 0 mm 2 mps 756 mmHg 40%
    04:00 +20°C° 0 mm 2 mps 756 mmHg 40%
    05:00 +20°C° 0 mm 2 mps 756 mmHg 41%
    06:00 +23°C° 0 mm 2 mps 757 mmHg 42%
    07:00 +24°C° 0 mm 1 mps 757 mmHg 44%
    08:00 +26°C° 0 mm 1 mps 757 mmHg 46%
    09:00 +28°C° 0 mm 2 mps 757 mmHg 41%
    10:00 +30°C° 0 mm 3 mps 758 mmHg 37%
    11:00 +33°C° 0 mm 4 mps 758 mmHg 32%
    12:00 +33°C° 0 mm 3 mps 757 mmHg 32%
    13:00 +34°C° 0 mm 3 mps 757 mmHg 32%
    14:00 +34°C° 0 mm 3 mps 757 mmHg 32%
    15:00 +33°C° 0 mm 3 mps 756 mmHg 38%
    16:00 +31°C° 0 mm 3 mps 756 mmHg 45%
    17:00 +30°C° 0 mm 3 mps 756 mmHg 51%
    18:00 +28°C° 0 mm 3 mps 756 mmHg 56%
    19:00 +26°C° 0 mm 2 mps 756 mmHg 62%
    20:00 +24°C° 0 mm 2 mps 756 mmHg 67%
    21:00 +24°C° 0 mm 2 mps 757 mmHg 70%
    22:00 +23°C° 0 mm 2 mps 757 mmHg 72%
    23:00 +22°C° 0 mm 1 mps 758 mmHg 75%

    Day after tomorrow, 24 August, Saturday

    Time Temperature Precipitation Wind Pressure Humidity
    00:00 +22°C° 0 mm 1 mps 758 mmHg 74%
    01:00 +22°C° 0 mm 1 mps 758 mmHg 74%
    02:00 +22°C° 0 mm 1 mps 758 mmHg 74%
    03:00 +21°C° 0 mm 1 mps 758 mmHg 75%
    04:00 +21°C° 0 mm 1 mps 758 mmHg 75%
    05:00 +19°C° 0 mm 0 mps 758 mmHg 75%
    06:00 +21°C° 0 mm 0 mps 758 mmHg 71%
    07:00 +22°C° 0 mm 0 mps 758 mmHg 67%
    08:00 +24°C° 0 mm 0 mps 759 mmHg 63%
    09:00 +27°C° 0 mm 1 mps 759 mmHg 57%
    10:00 +29°C° 0 mm 1 mps 758 mmHg 52%
    11:00 +30°C° 0 mm 2 mps 758 mmHg 47%
    12:00 +31°C° 0 mm 2 mps 758 mmHg 46%
    13:00 +32°C° 0 mm 2 mps 757 mmHg 44%
    14:00 +33°C° 0 mm 3 mps 757 mmHg 42%
    15:00 +33°C° 0 mm 3 mps 756 mmHg 45%
    16:00 +33°C° 0 mm 3 mps 756 mmHg 47%
    17:00 +31°C° 0 mm 3 mps 756 mmHg 49%
    18:00 +29°C° 0 mm 3 mps 756 mmHg 55%
    19:00 +27°C° 0 mm 3 mps 757 mmHg 61%
    20:00 +25°C° 0 mm 3 mps 757 mmHg 67%
    21:00 +24°C° 0 mm 2 mps 757 mmHg 69%
    22:00 +24°C° 0 mm 2 mps 757 mmHg 71%
    23:00 +23°C° 0 mm 2 mps 758 mmHg 73%

    25 August, Sunday

    Time Temperature Precipitation Wind Pressure Humidity
    00:00 +23°C° 0 mm 2 mps 758 mmHg 76%
    01:00 +21°C° 0 mm 2 mps 758 mmHg 79%
    02:00 +21°C° 0 mm 1 mps 758 mmHg 81%
    03:00 +21°C° 0 mm 1 mps 758 mmHg 83%
    04:00 +21°C° 0 mm 1 mps 758 mmHg 85%
    05:00 +20°C° 0 mm 1 mps 758 mmHg 88%
    06:00 +22°C° 0 mm 1 mps 758 mmHg 82%
    07:00 +23°C° 0 mm 1 mps 758 mmHg 76%
    08:00 +25°C° 0 mm 1 mps 758 mmHg 70%
    09:00 +27°C° 0 mm 2 mps 758 mmHg 64%
    10:00 +28°C° 0 mm 2 mps 758 mmHg 58%
    11:00 +30°C° 0 mm 3 mps 758 mmHg 52%
    12:00 +31°C° 0 mm 3 mps 757 mmHg 50%
    13:00 +33°C° 0 mm 4 mps 756 mmHg 47%
    14:00 +34°C° 0 mm 4 mps 756 mmHg 45%
    15:00 +34°C° 0 mm 4 mps 755 mmHg 46%
    16:00 +33°C° 0 mm 4 mps 755 mmHg 48%
    17:00 +33°C° 0 mm 4 mps 755 mmHg 49%
    18:00 +30°C° 0 mm 4 mps 755 mmHg 55%
    19:00 +28°C° 0 mm 3 mps 755 mmHg 60%
    20:00 +26°C° 0 mm 2 mps 756 mmHg 65%
    21:00 +26°C° 0 mm 2 mps 756 mmHg 67%
    22:00 +25°C° 0 mm 2 mps 756 mmHg 70%
    23:00 +25°C° 0 mm 2 mps 756 mmHg 72%

    26 August, Monday

    Time Temperature Precipitation Wind Pressure Humidity
    00:00 +25°C° 0 mm 2 mps 756 mmHg 72%
    01:00 +25°C° 0 mm 1 mps 756 mmHg 72%
    02:00 +25°C° 0 mm 1 mps 755 mmHg 72%
    03:00 +25°C° 0.1 mm 1 mps 755 mmHg 74%
    04:00 +24°C° 0.1 mm 1 mps 755 mmHg 77%
    05:00 +24°C° 0.1 mm 1 mps 755 mmHg 80%
    06:00 +25°C° 0.2 mm 1 mps 755 mmHg 78%
    07:00 +25°C° 0.2 mm 1 mps 755 mmHg 77%
    08:00 +26°C° 0.2 mm 1 mps 755 mmHg 76%
    09:00 +28°C° 0 mm 2 mps 755 mmHg 69%
    10:00 +29°C° 0 mm 3 mps 755 mmHg 61%
    11:00 +31°C° 0 mm 3 mps 755 mmHg 54%
    12:00 +33°C° 0 mm 4 mps 754 mmHg 53%
    13:00 +33°C° 0 mm 5 mps 754 mmHg 52%
    14:00 +34°C° 0 mm 5 mps 753 mmHg 52%
    15:00 +33°C° 0 mm 5 mps 753 mmHg 53%
    16:00 +33°C° 0 mm 5 mps 753 mmHg 55%
    17:00 +33°C° 0 mm 4 mps 753 mmHg 56%
    18:00 +30°C° 0.2 mm 4 mps 753 mmHg 64%
    19:00 +28°C° 0.2 mm 4 mps 753 mmHg 73%
    20:00 +26°C° 0.2 mm 3 mps 753 mmHg 81%
    21:00 +25°C° 0.8 mm 3 mps 754 mmHg 84%
    22:00 +24°C° 0.8 mm 2 mps 754 mmHg 88%
    23:00 +23°C° 0.8 mm 1 mps 754 mmHg 91%

    27 August, Tuesday

    Time Temperature Precipitation Wind Pressure Humidity
    00:00 +23°C° 0.6 mm 1 mps 754 mmHg 92%
    01:00 +23°C° 0.6 mm 1 mps 754 mmHg 93%
    02:00 +23°C° 0.6 mm 1 mps 754 mmHg 93%
    03:00 +20°C° 0.1 mm 0 mps 754 mmHg 94%
    04:00 +20°C° 0.1 mm 0 mps 754 mmHg 94%
    05:00 +20°C° 0.1 mm 0 mps 754 mmHg 95%
    06:00 +21°C° 0 mm 0 mps 754 mmHg 92%
    07:00 +22°C° 0 mm 0 mps 754 mmHg 89%
    08:00 +23°C° 0 mm 0 mps 754 mmHg 87%
    09:00 +25°C° 0 mm 0 mps 754 mmHg 76%
    10:00 +29°C° 0 mm 1 mps 754 mmHg 65%
    11:00 +31°C° 0 mm 1 mps 754 mmHg 55%
    12:00 +32°C° 0 mm 1 mps 753 mmHg 47%
    13:00 +33°C° 0 mm 1 mps 753 mmHg 39%
    14:00 +34°C° 0 mm 1 mps 753 mmHg 31%
    15:00 +34°C° 0 mm 2 mps 752 mmHg 34%
    16:00 +34°C° 0 mm 2 mps 752 mmHg 38%
    17:00 +33°C° 0 mm 3 mps 752 mmHg 41%
    18:00 +30°C° 0 mm 2 mps 752 mmHg 48%
    19:00 +29°C° 0 mm 2 mps 752 mmHg 55%
    20:00 +27°C° 0 mm 1 mps 752 mmHg 62%
    21:00 +26°C° 0 mm 1 mps 752 mmHg 66%
    22:00 +25°C° 0 mm 1 mps 753 mmHg 71%
    23:00 +24°C° 0 mm 1 mps 753 mmHg 76%
    Show more